Location: Unspecified
(49.2170°N, 0.0000°E)
Time: 07:51:44
(UTC+00:00)

Vanguard 3 - Pass Details

Date: 29 January 2021
Orbit: 508 x 3262 km, 33.4° (Epoch: 08 March)

Event Time Altitude Azimuth Distance (km) Brightness Sun altitude
Rises 08:55:43 0° 254° (WSW) 5,003 10.9 10.0°
Reaches altitude 10° 09:05:11 10° 213° (SSW) 4,959 11.3 11.1°
Maximum altitude 09:05:36 10° 212° (SSW) 4,995 11.4 11.1°
Drops below altitude 10° 09:06:02 10° 210° (SSW) 5,034 11.4 11.2°
Sets 09:18:44 0° 173° (S) 6,897 12.9 12.6°
